NOAA NWS Hourly Roundups by Site

Regional Weather Roundup for Bismarck, ND

To Select Another Site Choose from List

Select Site:  

412
ASUS43 KBIS 252310
RWRBIS

NWR BROADCAST TEXT
NATIONAL WEATHER SERVICE BISMARCK ND
600 PM CDT THU APR 25 2019

NOTE: "FAIR" INDICATES FEW OR NO CLOUDS BELOW 12,000 FEET WITH NO
SIGNIFICANT WEATHER AND/OR OBSTRUCTIONS TO VISIBILITY.


CITY           SKY/WX    TMP DP  RH WIND       PRES   REMARKS
WILLISTON      SUNNY     56   9  15 NW18G35   30.15S
MINOT          PTSUNNY   56  19  23 NW29G41   30.07R
MINOT AFB      MOSUNNY   55  20  25 NW25G36   30.05R
BISMARCK       SUNNY     58  10  15 NW29G48   30.10R
DICKINSON      SUNNY     54   7  15 NW26G39   30.12S
GARRISON         N/A     55  10  16 NW29G41   30.08R
HETTINGER ARPT SUNNY     56  18  22 NW22G36   30.16R
JAMESTOWN      SUNNY     57  17  21 NW26G43   30.01R
CARRINGTON     FAIR      57  21  24 NW35G45   30.03R
HAZEN          FAIR      55  10  16 NW30G36   30.13R
MANDAN         FAIR      55  16  21 NW31G38   30.10R
OAKES          FAIR      59  28  31 NW25G39   30.01R
RUGBY          MOCLDY    52  27  37 NW32G43   30.02R
STANLEY        FAIR      54  16  22 NW24G35   30.11R
TIOGA          FAIR      54  10  17 NW25G35   30.13S
WATFORD CITY   FAIR      54   7  15 NW25G33   30.13F
$$

CITY           SKY/WX    TMP DP  RH WIND       PRES   REMARKS
GRAND FORKS    MOSUNNY   56  24  29 NW23G38   29.92R
GRAND FORKS AF MOSUNNY   57  41  54 NW18G35   29.95R
DEVILS LAKE    PTSUNNY   51  24  34 NW29G40   29.99R
FARGO          SUNNY     59  18  20 NW29G43   29.96R
CANDO          MOCLDY    52  25  35 NW22G32   30.02R
CAVALIER       FAIR      55  21  26 NW24G35   29.92R
GRAFTON        FAIR      55  27  33 NW30      29.94R
GWINNER          N/A     59  19  21 NW26G37   30.00R
LANGDON        FAIR      52  52 100 NW29G38   29.95R
ROLLA          CLOUDY    46  32  57 NW26G35   30.02R
WALHALLA       FAIR      50  34  53 N24G35    29.95R
$$

CITY           SKY/WX    TMP DP  RH WIND       PRES   REMARKS
ABERDEEN       SUNNY     64  20  18 NW31G41   30.03R
MOBRIDGE       MOSUNNY   63  19  18 NW24G36   30.07R
BUFFALO          N/A     56  19  23 NW24G32   30.15S
RAPID CITY     MOSUNNY   57  33  40 N21G29    30.17S
GLASGOW        SUNNY     57   9  14 NW12G23   30.19F
SIDNEY         SUNNY     56   7  14 NW23G29   30.17F
WOLF POINT     SUNNY     58   9  14 NW18      30.19S
GLENDIVE       SUNNY     54  14  20 N17G26    30.20S
MILES CITY     SUNNY     55  20  25 MISG      30.21F
BAKER          SUNNY     54  20  26 NW20      30.20S
$$

CITY           SKY/WX    TMP DP  RH WIND       PRES   REMARKS
BILLINGS       PTSUNNY   55  30  38 SE12      30.18F
GREAT FALLS    MOSUNNY   56  22  26 VRB5      30.09F
REGINA         MOSUNNY   54   1  12 NW24G36   30.10S
ESTEVAN        MOSUNNY   54  19  26 NW25G36   30.09S
$$




 

View Past Reports for Bismarck, ND.

Products Courtesy of NOAA-NWS
NWS Information Parsing Script by Ken True at Saratoga Weather - Script by SE Lincoln Weather.